Regional Weather Roundup
Issued by NWS Northern Indiana

Home | Current Version | Previous Version | Graphics & Text | Print | Product List | Glossary On
Versions: 1 2 3 4 5 6 7 8 9 10 11 12 13 14 15 16 17 18 19 20 21 22 23 24 25 26 27 28 29 30 31 32 33 34 35 36 37 38 39 40 41 42 43 44 45 46 47 48 49 50
000
ASUS43 KIWX 262110
RWRIWX

KIWX WEATHER ROUNDUP
NATIONAL WEATHER SERVICE NORTHERN INDIANA
400 PM EST WED NOV 26 2014

NOTE: "FAIR" INDICATES FEW OR NO CLOUDS BELOW 12,000 FEET WITH NO
SIGNIFICANT WEATHER AND/OR OBSTRUCTIONS TO VISIBILITY.

* THESE STATIONS ARE NOT UNDER NWS QUALITY CONTROL. THEY ALSO MAY NOT
  REPORT WEATHER SUCH AS PRECIPITATION OR FOG.

INZ001>027-262200-
NORTHERN INDIANA

CITY           SKY/WX    TMP DP  RH WIND       PRES   REMARKS
GARY*          CLOUDY    28  19  69 E7        30.12S WCI  21
VALPARAISO     CLOUDY    27  19  72 E7        30.11S WCI  19
MICHIGAN CITY* CLOUDY    28  19  69 SE3       30.12S
LAPORTE*       CLOUDY    29  22  74 CALM      30.11S
KNOX*          CLOUDY    29  20  70 SE5       30.10S WCI  23
SOUTH BEND     CLOUDY    28  20  71 NE3       30.11S
ELKHART*       CLOUDY    28  18  64 CALM      30.12S
GOSHEN         CLOUDY    28  20  71 E3        30.10S
MONTICELLO*    CLOUDY    29  22  75 NE5       30.07F WCI  23
LOGANSPORT*    CLOUDY    30  21  69 E6        30.09S WCI  24
ROCHESTER*     CLOUDY    30  23  74 CALM      30.10S
WARSAW*        CLOUDY    28  21  74 CALM      30.09S
ANGOLA*        CLOUDY    28  19  69 CALM      30.09R
FORT WAYNE     CLOUDY    29  21  72 NE3       30.10S
HUNTINGTON*    CLOUDY    28  21  76 NE5       30.08S WCI  23
PERU/GRISSOM   CLOUDY    28  24  84 E6        30.08R WCI  22
MARION*          N/A     28  20  72 SE5       30.08R WCI  23

$$
INZ028>050-262200-
CENTRAL INDIANA

CITY           SKY/WX    TMP DP  RH WIND       PRES   REMARKS
LAFAYETTE      MOSUNNY   30  22  72 VRB3      30.08S
KOKOMO*        CLOUDY    28  19  69 E7        30.08R WCI  21
MUNCIE*        CLOUDY    29  21  72 E6        30.06F WCI  23
INDIANAPOLIS   PTSUNNY   33  23  66 SE6       30.04S WCI  28

$$
MIZ043>046-050>051-056>058-064>065-071>073-077>080-262200-
SOUTHWEST LOWER MICHIGAN

CITY           SKY/WX    TMP DP  RH WIND       PRES   REMARKS
BATTLE CREEK   LGT SNOW  29  21  72 NW3       30.11S
BENTON HARBOR  CLOUDY    27  19  72 NE5       30.12S WCI  22
COLDWATER*     CLOUDY    31  22  69 N3        30.09F
HILLSDALE*     CLOUDY    30  22  71 CALM      30.08R
HOLLAND        CLOUDY    32  21  64 E7        30.13S WCI  26
GRAND RAPIDS   CLOUDY    30  20  66 NE3       30.14R
KALAMAZOO      CLOUDY    29  19  66 CALM      30.12S
STURGIS*       CLOUDY    27  21  80 CALM      30.10S
THREE RIVERS*  CLOUDY    29  21  70 CALM      30.12S

$$
OHZ001>008-015>018-024>025-262200-
NORTHWEST OHIO

CITY           SKY/WX    TMP DP  RH WIND       PRES   REMARKS
WAUSEON*       CLOUDY    30  25  80 N6        30.09S WCI  24
DEFIANCE       CLOUDY    32  23  69 N3        30.10S
FINDLAY        CLOUDY    34  25  69 CALM      30.06R
TOLEDO EXPRESS CLOUDY    32  23  69 CALM      30.09R
TOLEDO METCALF CLOUDY    33  25  72 N6        30.10R WCI  28
LIMA           CLOUDY    33  23  66 W3        30.06S

$$
AND FOR LAKE MICHIGAN COASTAL AND OPEN LAKE BUOY OBSERVATIONS

STATION/POSITION TEMP    WIND        PRES    VSBY  WAVE
                 AIR SEA DIR/SP/G                  HT/PER
                 (F)     (DEG/KT/KT) (MB)    (MI)  (FT/S)
CALUMET HARBOR    27      70/  4/  7 1018.6S
MICHIGAN CITY     27      70/  3/  4   N/A
SAINT JOSEPH      29     100/  1/  3 1020.3F
SOUTH LAKE BUOY   31 42  130/  4/  8 1020.8R         1/ 4

$$
&&



USA.gov is the U.S. government's official web portal to all federal, state and local government web resources and services.